London-Corbin, KY

7:08 AM EST on November 17, 2019 (GMT -0500)
London-Corbin / McKee

Weather History for KLOZ - October, 2019

Change the Weather History Date:

Sunday, October 13, 2019

  Actual Average Record
Temperature  
Mean Temperature 51 °F 58 °F  
Max Temperature 68 °F 70 °F 86 °F (2008)
Min Temperature 33 °F 46 °F 26 °F (1988)
Degree Days  
Heating Degree Days 14 8  
Month to date heating degree days 33 78  
Since 1 July heating degree days 33 125  
Cooling Degree Days 0 1  
Month to date cooling degree days 67 15  
Year to date cooling degree days 1484 1182  
Moisture  
Dew Point 38 °F    
Average Humidity 65    
Maximum Humidity 100    
Minimum Humidity 29    
Precipitation  
Precipitation 0.00 in 0.09 in 1.29 in (1983)
Month to date precipitation 3.57 1.23  
Sea Level Pressure  
Sea Level Pressure 30.06 in    
Wind  
Wind Speed 2 mph (SW)    
Max Wind Speed 10 mph    
Max Gust Speed 15 mph    
Visibility 8 miles    
Events Fog    
T = Trace of Precipitation, MM = Missing Value Source: NWS Daily Summary

Daily Weather History Graph

Daily Weather History Graph

Search for Another Location

Airport or City:

Astronomy

Oct. 13, 2019 Rise Set
Actual Time 7:42 AM EDT 7:02 PM EDT
Civil Twilight 7:15 AM EDT 7:28 PM EDT
Nautical Twilight 6:45 AM EDT 7:58 PM EDT
Astronomical Twilight 6:15 AM EDT 8:28 PM EDT
Moon 7:23 PM EDT (10/13) 7:17 AM EDT (10/13)
Length of Visible Light 12h 12m
Length of Day
11h 20m
Full, 100% of the Moon is Illuminated
Oct 13
Full
Oct 13
Full
Oct 21
Last Quarter
Oct 27
New
Nov 4
First Quarter

Hourly Weather History & Observations

Time (EDT) Temp. Windchill Dew Point Humidity Pressure Visibility Wind Dir Wind Speed Gust Speed Precip Events Conditions
12:53 AM 39.9 °F - 37.9 °F 93% 30.09 in 8.0 mi Calm Calm - N/A   Clear
1:53 AM 39.0 °F - 37.9 °F 96% 30.09 in 10.0 mi Calm Calm - N/A   Clear
2:53 AM 37.9 °F - 36.0 °F 93% 30.08 in 7.0 mi Calm Calm - N/A   Clear
3:53 AM 37.0 °F - 35.1 °F 93% 30.06 in 10.0 mi Calm Calm - N/A   Clear
4:53 AM 36.0 °F - 34.0 °F 93% 30.06 in 10.0 mi Calm Calm - N/A   Clear
5:53 AM 36.0 °F - 34.0 °F 93% 30.06 in 10.0 mi Calm Calm - N/A   Clear
6:49 AM 33.8 °F - 33.8 °F 100% 30.06 in 4.0 mi Calm Calm - N/A   Scattered Clouds
6:53 AM 34.0 °F 31.0 °F 33.1 °F 96% 30.06 in 1.8 mi SSE 3.5 mph - N/A   Mostly Cloudy
7:02 AM 34.0 °F 31.0 °F 33.1 °F 96% 30.06 in 0.5 mi SSE 3.5 mph - N/A Fog Fog
7:53 AM 34.0 °F - 33.1 °F 96% 30.07 in 0.2 mi Calm Calm - N/A Fog Fog
8:32 AM 35.1 °F - 35.1 °F 100% 30.08 in 2.0 mi Calm Calm - N/A   Mostly Cloudy
8:40 AM 36.0 °F - 35.1 °F 97% 30.08 in 10.0 mi Calm Calm - N/A   Mostly Cloudy
8:53 AM 37.0 °F - 36.0 °F 96% 30.10 in 10.0 mi Calm Calm - N/A   Partly Cloudy
9:53 AM 41.0 °F - 39.9 °F 96% 30.11 in 10.0 mi Calm Calm - N/A   Clear
10:05 AM 42.1 °F - 41.0 °F 96% 30.10 in 10.0 mi Calm Calm - N/A   Partly Cloudy
10:53 AM 48.9 °F - 44.1 °F 83% 30.11 in 10.0 mi West 4.6 mph - N/A   Clear
11:53 AM 55.0 °F - 43.0 °F 64% 30.09 in 10.0 mi WSW 4.6 mph - N/A   Clear
12:53 PM 59.0 °F - 39.9 °F 49% 30.06 in 10.0 mi Variable 5.8 mph - N/A   Clear
1:53 PM 62.1 °F - 37.9 °F 41% 30.03 in 10.0 mi West 4.6 mph - N/A   Clear
2:53 PM 64.9 °F - 39.0 °F 39% 30.01 in 10.0 mi Variable 3.5 mph - N/A   Clear
3:53 PM 66.9 °F - 33.1 °F 28% 30.01 in 10.0 mi SW 9.2 mph - N/A   Clear
4:53 PM 66.9 °F - 37.9 °F 34% 29.99 in 10.0 mi WSW 8.1 mph - N/A   Clear
6:53 PM 66.0 °F - 39.0 °F 37% 29.99 in 10.0 mi SW 3.5 mph - N/A   Clear
7:53 PM 55.0 °F - 46.0 °F 72% 30.00 in 10.0 mi Calm Calm - N/A   Clear
8:53 PM 52.0 °F - 44.1 °F 74% 30.02 in 10.0 mi Calm Calm - N/A   Clear
9:53 PM 50.0 °F - 44.1 °F 80% 30.03 in 10.0 mi Calm Calm - N/A   Clear
10:53 PM 46.9 °F - 43.0 °F 86% 30.04 in 10.0 mi Calm Calm - N/A   Clear
11:53 PM 44.1 °F - 42.1 °F 93% 30.05 in 10.0 mi Calm Calm - N/A   Clear